Macomb, IL

11:07 PM CDT on October 23, 2017 (GMT -0500)
Macomb Municipal

Weather History for KMQB - December, 2012

Change the Weather History Date:

Saturday, December 15, 2012

  Actual Average (KBRL) Record (KBRL)
Temperature  
Mean Temperature 44 °F -  
Max Temperature 50 °F 33 °F 61 °F (1971)
Min Temperature 39 °F 16 °F -16 °F (1989)
Degree Days  
Heating Degree Days 20    
Moisture  
Dew Point 45 °F    
Average Humidity 95    
Maximum Humidity 100    
Minimum Humidity 75    
Precipitation  
Precipitation 0.46 in - - ()
Sea Level Pressure  
Sea Level Pressure 29.69 in    
Wind  
Wind Speed 13 mph (South)    
Max Wind Speed 22 mph    
Max Gust Speed 31 mph    
Visibility 8 miles    
Events Rain    
Averages and records for this station are not official NWS values.
T = Trace of Precipitation, MM = Missing Value Source: NWS Daily Summary

Daily Weather History Graph

Daily Weather History Graph

Search for Another Location

Airport or City:

Trip Planner

Search our weather history database for the weather conditions in past years. The results will help you decide how hot, cold, wet, or windy it might be!

Date:

Astronomy

Dec. 15, 2012 Rise Set
Actual Time 7:19 AM CST 4:36 PM CST
Civil Twilight 6:48 AM CST 5:07 PM CST
Nautical Twilight 6:14 AM CST 5:42 PM CST
Astronomical Twilight 5:40 AM CST 6:15 PM CST
Moon 9:11 AM CST (12/15) 7:41 PM CST (12/15)
Length of Visible Light 10h 19m
Length of Day
9h 17m
Waxing Crescent, 8% of the Moon is Illuminated
Dec 15
Waxing Crescent
Dec 19
First Quarter
Dec 28
Full
Jan 4
Last Quarter
Jan 11
New

Hourly Weather History & Observations

Time (CST) Temp. Windchill Dew Point Humidity Pressure Visibility Wind Dir Wind Speed Gust Speed Precip Events Conditions
12:15 AM 43.2 °F 37.0 °F 35.6 °F 75% 29.94 in 10.0 mi SSE 11.5 mph - N/A Rain Light Rain
12:35 AM 42.8 °F 37.0 °F 35.6 °F 76% 29.93 in 10.0 mi SSE 10.4 mph - N/A Rain Light Rain
12:55 AM 41.7 °F 36.1 °F 37.4 °F 85% 29.92 in 10.0 mi South 9.2 mph - N/A Rain Light Rain
1:15 AM 41.2 °F 35.5 °F 37.4 °F 86% 29.90 in 10.0 mi SSE 9.2 mph - N/A Rain Light Rain
1:35 AM 41.2 °F 35.5 °F 37.4 °F 86% 29.90 in 10.0 mi SSE 9.2 mph - N/A Rain Light Rain
1:55 AM 41.0 °F 34.7 °F 37.4 °F 87% 29.91 in 10.0 mi SSE 10.4 mph - 0.02 in Rain Light Rain
2:15 AM 40.6 °F 34.8 °F 38.3 °F 91% 29.90 in 7.0 mi SSE 9.2 mph - 0.02 in Rain Rain
2:35 AM 39.7 °F 33.2 °F 39.4 °F 99% 29.89 in 10.0 mi SSE 10.4 mph - 0.03 in Rain Light Rain
2:55 AM 39.7 °F 33.2 °F 39.7 °F 100% 29.88 in 7.0 mi SSE 10.4 mph - 0.07 in Rain Rain
3:15 AM 40.1 °F 32.4 °F 40.1 °F 100% 29.87 in 5.0 mi SSE 13.8 mph 20.7 mph 0.05 in Rain Rain
3:35 AM 40.1 °F 31.6 °F 40.1 °F 100% 29.84 in 5.0 mi SE 16.1 mph - 0.14 in Rain Rain
3:55 AM 40.1 °F 30.7 °F 40.1 °F 100% 29.82 in 7.0 mi SE 19.6 mph 24.2 mph 0.20 in Rain Light Rain
4:15 AM 40.1 °F 31.0 °F 40.1 °F 100% 29.80 in 5.0 mi SE 18.4 mph 23.0 mph 0.01 in Rain Light Rain
4:35 AM 40.3 °F 31.9 °F 40.3 °F 100% 29.79 in 5.0 mi SE 16.1 mph 23.0 mph 0.01 in Rain Rain
4:55 AM 40.8 °F 32.6 °F 40.8 °F 100% 29.78 in 5.0 mi SSE 16.1 mph 24.2 mph 0.08 in Rain Light Rain
5:15 AM 40.6 °F 31.2 °F 40.6 °F 100% 29.74 in 4.0 mi SE 20.7 mph - 0.04 in Rain Light Rain
5:35 AM 41.0 °F 32.2 °F 41.0 °F 100% 29.75 in 7.0 mi SSE 18.4 mph 23.0 mph 0.06 in Rain Light Rain
5:55 AM 41.0 °F 32.8 °F 41.0 °F 100% 29.73 in 7.0 mi SSE 16.1 mph 23.0 mph 0.06 in   Overcast
6:15 AM 41.9 °F 32.6 °F 41.9 °F 100% 29.72 in 7.0 mi SE 21.9 mph 28.8 mph N/A Rain Light Rain
6:35 AM 43.0 °F 34.2 °F 43.0 °F 100% 29.72 in 5.0 mi SSE 20.7 mph 31.1 mph 0.01 in Rain Light Rain
6:55 AM 43.0 °F 35.4 °F 43.0 °F 100% 29.72 in 5.0 mi SSE 16.1 mph 20.7 mph 0.01 in   Overcast
7:15 AM 43.2 °F 35.3 °F 43.2 °F 100% 29.71 in 3.0 mi SSE 17.3 mph - N/A   Light Drizzle
7:35 AM 43.7 °F 36.9 °F 43.7 °F 100% 29.70 in 5.0 mi SSE 13.8 mph - N/A   Overcast
7:55 AM 43.9 °F 36.2 °F 43.9 °F 100% 29.70 in 5.0 mi SSE 17.3 mph 20.7 mph N/A   Overcast
8:15 AM 44.2 °F 37.0 °F 44.2 °F 100% 29.70 in 4.0 mi SSE 16.1 mph - N/A   Light Drizzle
8:35 AM 44.6 °F 38.1 °F 44.6 °F 100% 29.70 in 5.0 mi SSE 13.8 mph 19.6 mph N/A   Overcast
8:55 AM 44.6 °F 37.8 °F 44.6 °F 100% 29.69 in 7.0 mi SSE 15.0 mph - N/A   Overcast
9:15 AM 44.8 °F 38.3 °F 44.8 °F 100% 29.67 in 7.0 mi SSE 13.8 mph 19.6 mph N/A   Overcast
9:35 AM 45.1 °F 38.1 °F 45.1 °F 100% 29.66 in 7.0 mi SSE 16.1 mph 19.6 mph N/A   Overcast
9:55 AM 45.5 °F 38.9 °F 45.5 °F 100% 29.65 in 7.0 mi SSE 15.0 mph 20.7 mph N/A Rain Light Rain
10:15 AM 45.7 °F 39.1 °F 45.7 °F 100% 29.64 in 5.0 mi SSE 15.0 mph - N/A   Overcast
10:35 AM 46.4 °F 40.1 °F 46.4 °F 100% 29.63 in 5.0 mi SSE 15.0 mph - N/A   Overcast
10:55 AM 46.6 °F - 46.6 °F 100% 29.62 in 3.0 mi South 13.8 mph 19.6 mph 0.01 in Rain Light Rain
11:15 AM 46.4 °F 40.4 °F 46.4 °F 100% 29.60 in 4.0 mi South 13.8 mph 19.6 mph N/A Rain Light Rain
11:35 AM 47.7 °F - 47.7 °F 100% 29.59 in 4.0 mi SSE 13.8 mph - N/A Rain Light Rain
11:55 AM 48.2 °F - 48.2 °F 100% 29.59 in 5.0 mi South 17.3 mph 20.7 mph 0.01 in   Overcast
12:15 PM 48.2 °F - 48.2 °F 100% 29.58 in 4.0 mi South 16.1 mph - N/A   Overcast
12:35 PM 48.2 °F - 48.2 °F 100% 29.58 in 3.0 mi SSW 15.0 mph - N/A   Drizzle
12:55 PM 48.2 °F - 48.2 °F 100% 29.57 in 3.0 mi South 10.4 mph - N/A   Drizzle
1:15 PM 48.2 °F - 48.2 °F 100% 29.56 in 4.0 mi South 11.5 mph 16.1 mph N/A   Overcast
1:35 PM 48.7 °F - 48.7 °F 100% 29.56 in 10.0 mi South 10.4 mph - N/A   Overcast
1:55 PM 49.1 °F - 49.1 °F 100% 29.56 in 10.0 mi South 11.5 mph - N/A   Overcast
2:15 PM 49.3 °F - 49.3 °F 100% 29.56 in 10.0 mi South 10.4 mph - N/A   Overcast
2:35 PM 49.3 °F - 49.3 °F 100% 29.56 in 10.0 mi South 8.1 mph - N/A   Overcast
2:55 PM 49.3 °F - 49.3 °F 100% 29.56 in 10.0 mi SSW 9.2 mph - N/A   Overcast
3:15 PM 49.3 °F - 49.3 °F 100% 29.57 in 10.0 mi SSW 8.1 mph - N/A   Overcast
3:35 PM 49.3 °F - 49.3 °F 100% 29.58 in 10.0 mi SSW 9.2 mph - N/A   Overcast
3:55 PM 49.1 °F - 49.1 °F 100% 29.59 in 10.0 mi SSW 8.1 mph - N/A   Mostly Cloudy
4:15 PM 50.0 °F - 50.0 °F 100% 29.59 in 10.0 mi SW 10.4 mph - N/A   Overcast
4:35 PM 50.4 °F - 49.3 °F 96% 29.60 in 10.0 mi SW 12.7 mph - N/A   Overcast
4:55 PM 50.4 °F - 46.9 °F 88% 29.60 in 10.0 mi SW 11.5 mph - N/A   Overcast
5:15 PM 50.5 °F - 46.4 °F 86% 29.61 in 10.0 mi SW 12.7 mph - N/A   Overcast
5:35 PM 50.9 °F - 46.2 °F 84% 29.61 in 10.0 mi SW 12.7 mph - N/A   Overcast
5:55 PM 50.4 °F - 46.4 °F 86% 29.62 in 10.0 mi SW 12.7 mph - N/A   Overcast
6:15 PM 50.4 °F - 46.2 °F 86% 29.63 in 10.0 mi SW 15.0 mph - N/A   Overcast
6:35 PM 50.4 °F - 46.4 °F 86% 29.63 in 10.0 mi SW 9.2 mph - N/A   Overcast
6:55 PM 50.2 °F - 46.4 °F 87% 29.63 in 10.0 mi SW 11.5 mph - N/A   Overcast
7:15 PM 50.2 °F - 46.4 °F 87% 29.64 in 10.0 mi SW 12.7 mph - N/A   Overcast
7:35 PM 50.4 °F - 45.9 °F 85% 29.64 in 10.0 mi SW 15.0 mph 19.6 mph N/A   Overcast
7:55 PM 50.4 °F - 45.9 °F 85% 29.64 in 10.0 mi SW 11.5 mph 18.4 mph N/A   Overcast
8:15 PM 50.0 °F - 46.0 °F 86% 29.64 in 10.0 mi SW 10.4 mph - N/A   Overcast
8:35 PM 50.0 °F - 45.9 °F 86% 29.64 in 10.0 mi SW 10.4 mph - N/A   Overcast
8:55 PM 50.0 °F - 46.0 °F 86% 29.65 in 10.0 mi SW 10.4 mph - N/A   Overcast
9:15 PM 49.5 °F - 46.0 °F 88% 29.64 in 10.0 mi SW 10.4 mph - N/A   Overcast
9:35 PM 49.3 °F - 46.0 °F 89% 29.64 in 10.0 mi SW 9.2 mph - N/A   Overcast
9:55 PM 49.1 °F - 45.9 °F 89% 29.64 in 10.0 mi SW 9.2 mph - N/A   Overcast
10:15 PM 49.3 °F - 45.7 °F 87% 29.65 in 10.0 mi SW 9.2 mph - N/A   Overcast
10:35 PM 48.7 °F - 45.7 °F 89% 29.65 in 7.0 mi WSW 10.4 mph - N/A Rain Light Rain
10:55 PM 48.2 °F - 45.9 °F 92% 29.65 in 10.0 mi WSW 9.2 mph - N/A   Overcast
11:15 PM 48.2 °F - 46.4 °F 93% 29.65 in 10.0 mi WSW 8.1 mph - N/A   Overcast
11:35 PM 48.2 °F - 45.5 °F 90% 29.65 in 10.0 mi WSW 8.1 mph - N/A   Overcast
11:55 PM 47.8 °F - 45.3 °F 91% 29.65 in 10.0 mi SW 9.2 mph - N/A   Overcast